Temperature
28 25 24 25 25 26 26 26 26 27 28 27 26 25 25 25 24 23 23 22 22 22 22 21 21 21 21 20 20 20 19 19 19 19 18 18 18 18 18 18 18 18 18 18
25 25 26 27 28 28 27 26 26 27 28 27 25 25 25 24 24 24 23 22 23 22 22 21 21 21 21 20 20 20 19 19 19 19 19 19 18 18 18 18 18 18 18 18
25 26 28 28 28 27 27 26 26 26 26 26 25 24 24 24 25 24 23 23 23 22 22 21 21 21 21 20 20 20 20 19 19 19 19 19 18 18 18 18 18 18 18 18
26 27 28 28 28 28 26 28 28 27 25 23 24 22 23 23 23 23 23 23 22 22 22 22 21 21 21 21 20 20 20 19 19 19 19 19 19 18 18 18 18 18 18 18
26 28 28 28 28 28 27 28 27 27 24 23 23 22 22 22 22 22 23 23 22 22 22 22 22 21 21 21 20 20 20 19 19 19 19 19 19 18 18 18 18 18 18 18
27 28 29 29 29 29 28 26 25 22 21 22 22 22 21 21 22 22 23 23 22 22 22 22 22 21 21 21 20 20 20 19 19 19 19 18 18 18 18 18 18 18 18 18
26 27 28 29 28 28 26 23 22 22 20 21 22 22 21 23 23 23 23 22 22 22 22 22 21 21 21 20 20 20 20 19 19 19 19 18 18 18 18 18 18 18 18 18
25 25 27 28 28 27 26 23 22 22 21 21 22 22 22 24 24 24 23 23 22 22 22 22 22 21 21 20 20 20 20 19 19 19 19 18 18 18 18 18 18 18 18 18
24 25 27 29 29 28 26 24 22 21 21 21 21 22 23 23 23 23 23 23 22 22 22 21 21 21 21 21 20 20 20 19 19 19 19 18 18 18 18 18 18 18 18 18
25 25 26 28 28 27 27 24 21 21 21 21 21 22 21 22 22 22 22 22 22 22 21 21 21 21 21 20 20 20 19 19 19 19 19 18 18 18 18 18 18 18 18 18
24 24 25 26 26 26 26 25 21 19 20 20 21 21 23 22 22 21 21 22 22 21 21 21 21 21 21 20 20 20 19 19 19 19 19 18 18 18 18 18 18 18 18 18
24 21 22 24 25 27 26 25 22 21 21 19 20 20 23 22 22 22 22 22 22 21 21 21 20 20 20 20 20 20 20 19 19 19 18 18 18 18 18 18 18 17 17 17
24 21 22 22 23 24 25 25 22 20 19 19 20 21 22 22 22 22 21 21 21 21 21 20 20 20 20 20 19 19 19 19 19 18 18 18 18 18 18 17 17 17 17 17
24 20 21 22 23 24 25 25 24 21 20 20 20 21 21 21 21 21 21 21 21 20 20 20 20 20 19 19 19 19 19 19 18 18 18 18 17 17 17 17 17 17 17 17
22 22 23 23 24 25 25 25 25 23 21 21 21 21 21 20 20 20 21 21 20 20 20 20 20 19 19 19 19 19 18 18 18 18 18 17 17 17 17 17 17 17 16 16
20 22 23 23 24 25 25 25 25 25 23 22 22 21 20 21 21 20 20 20 20 20 20 19 19 19 19 19 18 18 18 18 18 17 17 17 17 17 17 16 16 16 16 16
19 20 21 21 22 23 23 23 24 23 23 22 21 20 20 19 19 20 20 20 20 20 20 19 19 19 19 18 18 18 18 17 17 17 17 17 17 16 16 16 16 16 16 15
19 19 17 19 21 22 22 22 24 23 22 22 21 20 20 20 20 20 20 20 20 19 19 19 19 18 18 18 18 18 17 17 17 17 17 16 16 16 16 16 16 16 15 15
19 19 18 18 20 21 22 23 23 21 21 21 20 20 20 20 19 19 20 20 19 19 19 19 18 18 18 18 18 17 17 17 16 16 16 16 16 16 16 16 16 15 15 15
18 17 18 18 20 20 21 22 23 21 19 20 20 19 19 19 17 17 19 19 19 18 18 18 18 18 17 17 17 17 17 16 16 16 16 16 15 15 15 15 15 15 15 14
19 18 18 18 19 19 20 22 22 20 19 20 20 20 19 18 18 19 19 19 18 18 18 18 18 17 17 17 17 16 16 16 16 15 15 15 15 15 15 15 14 14 14 14
18 17 17 17 18 18 20 21 19 18 19 20 20 20 19 19 19 19 18 18 18 18 17 17 17 17 16 16 16 16 16 16 15 15 15 15 15 15 15 14 14 14 14 14
17 17 16 16 17 18 20 20 21 21 20 20 20 20 19 19 18 18 17 17 17 17 17 17 16 16 16 16 16 16 15 15 15 15 14 14 14 14 14 14 14 14 14 13
18 17 16 16 17 18 20 20 20 20 20 20 20 19 19 18 18 17 17 17 17 17 16 16 16 16 15 15 15 15 15 15 15 14 14 14 14 14 14 14 14 14 13 13
18 17 16 16 17 18 19 20 20 20 20 20 19 19 19 18 18 17 17 17 16 16 16 16 16 15 15 15 15 15 15 15 14 14 14 14 14 14 14 14 13 13 13 13
16 16 16 16 17 17 18 19 19 19 19 19 19 18 18 18 17 17 16 16 16 16 15 15 15 15 15 15 15 15 14 14 14 14 14 14 14 14 13 13 13 13 13 13
Wind_Speed
3 2 4 7 7 6 4 4 5 7 3 2 4 6 8 10 10 11 10 10 10 10 8 8 9 9 9 7 7 6 6 5 4 2 2 2 2 1 1 1 3 5 5 5
4 5 10 7 5 3 4 4 5 5 1 2 3 3 6 9 12 12 13 13 12 10 8 8 8 8 8 8 8 7 7 6 5 3 3 3 3 2 2 1 1 3 4 5
6 8 6 4 4 4 5 4 4 3 3 5 4 2 1 3 5 7 9 10 11 13 12 10 9 8 8 8 8 8 7 6 6 5 3 2 2 2 1 1 0 0 2 3
7 8 5 5 5 4 5 5 3 1 3 2 2 0 4 3 3 6 8 9 10 10 10 9 9 9 9 9 8 7 7 7 6 5 5 5 4 3 2 1 1 0 1 2
7 5 4 5 6 4 5 3 1 1 3 3 4 2 5 0 3 6 8 9 10 10 10 11 11 10 8 8 7 7 7 6 5 5 5 5 4 3 2 1 1 1 1 1
8 7 5 6 4 3 3 5 7 7 6 2 3 1 4 3 6 7 7 8 9 9 10 10 9 8 6 6 6 6 7 6 5 6 5 5 5 4 3 2 1 1 0 0
7 8 5 2 0 2 5 6 5 6 5 3 3 1 6 7 6 8 9 9 8 8 9 9 9 9 8 7 6 6 6 5 5 5 5 5 5 5 5 4 3 2 1 1
2 7 5 2 5 5 3 8 7 4 3 4 3 3 6 5 3 6 8 9 8 8 8 8 9 9 9 8 7 7 7 6 5 5 5 4 5 4 3 3 3 3 2 2
3 6 6 4 2 6 2 2 8 7 2 1 3 3 5 3 2 4 6 7 8 8 7 7 7 8 8 8 8 8 7 6 5 5 4 4 4 4 3 3 3 2 2 2
6 3 7 5 4 3 4 6 6 6 4 1 3 2 4 2 0 3 4 6 6 6 6 6 5 6 7 7 7 6 7 6 5 5 4 4 3 3 3 3 3 2 2 2
5 4 6 5 1 2 2 3 5 5 6 6 2 5 4 5 5 5 4 4 6 7 6 6 5 5 5 5 6 6 6 5 4 4 3 3 3 2 2 3 3 2 2 2
3 5 3 6 6 3 4 4 6 5 3 4 4 5 4 5 5 6 6 6 6 7 7 6 5 4 4 4 5 6 6 5 5 4 4 3 2 2 2 2 2 2 2 2
4 6 2 7 8 6 3 0 3 5 5 4 5 5 2 3 4 5 6 6 7 6 6 6 6 5 4 4 4 5 5 5 5 5 4 3 3 2 3 3 2 2 2 2
5 5 6 7 7 4 4 4 1 4 3 4 6 5 2 2 4 4 5 6 7 6 6 6 6 5 4 3 3 4 3 4 4 4 4 3 3 3 3 3 2 2 3 2
5 3 2 4 4 2 3 4 1 2 5 6 7 7 8 7 6 5 6 7 8 6 6 7 6 4 3 3 3 3 3 3 4 4 4 4 3 3 3 2 2 2 2 2
4 3 2 3 3 3 4 4 2 1 2 4 5 3 5 4 5 5 5 6 7 7 7 5 6 5 4 4 3 3 2 2 3 4 3 2 2 2 2 3 2 2 2 2
3 3 3 3 5 4 3 4 0 2 3 6 5 5 4 5 7 7 6 6 6 7 6 6 5 5 5 5 4 3 2 2 3 3 2 2 2 2 2 2 2 2 2 2
5 4 3 1 4 1 6 3 3 5 2 2 3 4 6 7 5 4 6 6 6 5 6 6 5 5 4 5 5 4 3 3 2 2 2 2 2 2 2 2 2 1 2 3
6 7 4 3 1 4 5 4 2 4 3 3 6 5 5 7 6 3 2 5 5 4 4 4 5 5 4 4 4 4 3 2 2 1 1 2 3 2 2 2 2 2 2 1
5 6 5 4 3 4 4 4 2 7 1 3 5 7 7 7 3 3 2 5 4 3 3 4 4 5 4 3 4 4 3 2 1 1 2 2 2 3 2 2 2 2 2 2
3 3 3 3 3 5 5 4 4 3 4 2 3 6 6 3 5 5 5 4 4 3 4 4 5 5 4 4 5 4 2 2 2 1 1 1 2 3 3 2 2 2 2 2
4 3 3 3 3 6 5 3 3 4 2 2 3 3 4 4 5 4 5 4 4 3 3 4 5 4 3 4 5 3 2 2 1 1 1 1 1 2 2 2 2 2 2 2
3 6 5 6 6 6 2 3 4 5 5 2 3 4 6 6 5 4 3 2 2 2 2 3 4 3 2 2 4 4 2 1 2 1 1 1 1 1 2 3 3 2 2 2
2 1 3 1 1 1 1 2 2 3 4 3 4 5 6 7 6 5 4 2 1 2 2 2 4 3 2 1 2 3 2 2 2 2 1 1 2 2 2 2 2 3 3 3
3 1 2 1 2 1 1 1 2 3 5 5 4 4 5 7 5 4 3 3 2 1 1 2 3 3 2 2 2 2 2 2 2 2 2 2 2 2 2 2 2 3 3 5
2 3 4 5 6 5 4 2 2 4 4 4 5 4 4 5 5 4 3 3 3 3 2 2 2 2 2 2 1 1 1 2 2 2 2 2 2 2 2 2 1 1 1 3
Wind_Direction
294 70 252 238 213 204 228 261 275 275 262 107 130 142 165 169 169 167 167 167 172 175 172 167 165 161 158 161 162 163 161 164 149 136 131 128 137 152 144 169 181 180 181 180
351 269 249 241 232 230 239 254 271 291 323 90 114 144 172 177 184 177 174 174 175 172 170 174 169 164 163 168 171 169 171 170 167 165 165 158 157 165 166 182 175 188 183 186
230 248 252 256 253 250 262 220 218 239 21 40 72 9 222 194 175 175 179 178 178 175 175 177 171 172 170 173 177 176 176 172 170 164 142 123 98 66 56 60 100 195 171 165
256 254 257 250 252 217 257 244 194 184 78 324 79 239 281 192 179 186 190 181 177 176 173 174 173 176 179 181 179 174 173 172 171 160 149 149 147 156 187 179 161 94 131 140
261 259 248 247 238 213 227 227 125 91 88 30 11 95 279 197 191 198 190 179 176 175 174 177 177 176 175 173 170 171 164 167 164 156 156 153 151 160 147 132 106 96 78 121
261 267 231 227 239 199 149 58 36 45 64 26 295 142 277 239 203 185 181 170 170 174 173 174 173 163 161 161 162 164 160 165 165 162 160 159 160 157 146 149 159 172 144 100
303 298 278 221 91 334 81 85 36 11 17 263 269 149 248 250 202 170 169 172 173 169 167 165 162 165 167 164 164 161 158 160 165 163 165 165 166 167 171 181 181 176 172 203
270 295 288 252 183 194 183 133 148 178 205 273 311 228 257 268 211 163 162 165 164 158 158 159 163 167 169 169 170 167 168 167 170 165 168 165 162 169 181 188 182 186 191 209
188 266 290 286 223 147 157 157 159 136 137 149 275 286 311 347 78 126 142 146 158 155 152 155 164 166 166 167 173 175 171 167 174 175 166 163 166 172 182 186 178 178 192 195
170 258 297 304 20 25 149 152 94 108 137 239 290 262 237 248 95 85 137 153 155 150 152 155 159 166 172 171 168 166 165 173 177 174 172 166 171 177 179 166 171 182 196 196
155 171 303 354 30 254 31 74 100 116 146 154 219 272 226 187 167 146 133 141 153 157 158 161 158 154 156 157 157 160 163 160 160 168 167 163 165 168 163 171 184 192 194 183
158 135 249 271 270 213 154 156 139 143 197 159 163 262 257 175 154 139 129 129 132 138 136 131 123 115 121 134 153 160 162 167 167 171 155 155 155 159 170 186 199 190 193 193
124 113 59 339 341 353 21 18 133 130 125 148 160 247 280 119 115 123 120 121 123 126 124 117 111 113 123 136 147 161 167 170 165 156 152 159 167 175 190 196 197 187 182 176
118 110 155 196 229 255 304 312 102 110 146 186 199 207 245 155 139 131 123 123 123 122 131 128 126 131 129 122 133 144 152 154 148 150 157 167 186 196 199 194 192 193 180 171
84 110 188 224 239 288 292 308 341 159 181 180 202 193 208 190 166 155 142 130 123 125 127 139 142 139 129 120 121 122 130 149 149 149 162 186 190 185 185 187 197 192 182 185
69 107 44 342 340 5 335 323 329 342 139 142 138 209 207 169 130 130 143 141 138 143 145 146 145 142 141 139 137 129 117 128 138 145 167 185 177 175 182 189 190 181 179 176
77 96 83 295 318 21 321 282 248 104 136 146 175 207 162 144 150 158 154 148 153 155 151 148 156 162 159 156 148 139 141 122 110 126 143 153 161 167 184 181 154 164 180 163
131 108 122 89 35 261 252 279 110 101 69 93 125 148 158 154 149 143 148 144 141 142 150 154 161 163 160 151 148 142 135 129 135 147 155 163 151 166 169 146 152 166 158 162
139 134 119 114 128 282 302 328 65 94 15 62 110 113 113 104 77 46 100 121 140 147 149 156 163 162 154 148 151 140 131 126 124 161 186 181 165 156 158 167 183 184 162 171
68 101 116 123 149 225 265 313 60 92 13 327 114 127 132 105 110 232 177 117 122 124 129 127 128 123 126 132 125 117 118 123 163 219 213 193 170 166 181 190 194 195 171 190
34 49 117 151 191 250 272 304 39 99 221 259 116 130 139 154 188 182 151 131 130 127 124 117 118 123 136 133 121 124 134 177 209 213 212 200 191 185 187 187 195 190 183 181
171 158 179 145 172 245 290 50 122 190 185 126 115 134 123 114 110 119 124 118 107 98 102 117 123 131 140 133 129 137 185 217 186 166 175 210 228 195 169 163 179 184 178 177
170 182 180 176 206 235 259 156 169 154 145 160 158 153 132 124 124 123 115 122 120 107 102 128 133 134 133 140 146 162 214 203 153 147 192 232 240 229 201 184 190 194 188 190
306 74 100 79 268 256 51 78 101 140 148 164 153 142 140 136 143 141 141 145 115 101 109 128 129 136 153 169 171 185 187 166 157 176 221 243 226 228 231 207 193 192 202 201
243 104 96 181 233 56 22 90 111 89 97 104 110 125 140 138 142 144 149 153 145 111 115 134 145 157 182 189 200 205 178 155 173 199 216 230 237 224 225 229 217 201 207 195
247 179 173 216 217 177 211 225 124 105 103 119 118 109 125 135 136 135 146 163 158 152 135 124 146 172 190 176 199 219 179 165 180 221 231 227 222 212 203 204 283 30 177 185
Height
1501 1508 1513 1509 1506 1508 1510 1513 1516 1508 1500 1504 1508 1510 1510 1511 1513 1515 1516 1517 1519 1520 1522 1523 1524 1525 1525 1526 1526 1526 1526 1526 1526 1526 1527 1527 1528 1529 1530 1530 1531 1531 1531 1531
1507 1510 1501 1498 1500 1503 1507 1514 1514 1507 1500 1505 1511 1512 1509 1510 1511 1511 1513 1515 1517 1519 1521 1522 1523 1524 1524 1525 1525 1526 1526 1526 1526 1527 1528 1529 1529 1530 1531 1531 1532 1532 1532 1532
1510 1502 1495 1497 1501 1505 1507 1511 1511 1511 1506 1506 1512 1519 1515 1511 1511 1512 1513 1514 1515 1516 1518 1520 1522 1523 1524 1524 1525 1525 1525 1526 1526 1527 1528 1529 1530 1530 1531 1531 1532 1532 1532 1533
1503 1495 1496 1498 1500 1501 1510 1498 1500 1504 1515 1525 1520 1539 1522 1514 1513 1512 1512 1513 1513 1515 1517 1518 1520 1522 1523 1523 1524 1524 1525 1525 1526 1527 1528 1528 1529 1530 1530 1531 1532 1532 1533 1533
1502 1494 1496 1499 1496 1495 1499 1493 1498 1504 1515 1526 1525 1535 1530 1516 1517 1513 1511 1511 1512 1514 1515 1517 1518 1520 1521 1522 1523 1524 1524 1525 1527 1527 1528 1529 1529 1529 1531 1531 1532 1532 1532 1532
1494 1489 1490 1490 1488 1489 1491 1498 1505 1513 1525 1543 1533 1536 1536 1521 1514 1511 1510 1510 1511 1513 1514 1516 1518 1519 1520 1522 1523 1523 1524 1525 1526 1527 1528 1529 1528 1529 1530 1531 1531 1531 1532 1532
1500 1491 1486 1485 1492 1492 1495 1515 1537 1543 1552 1549 1530 1533 1530 1510 1504 1505 1507 1508 1509 1511 1513 1514 1516 1518 1519 1520 1521 1522 1523 1524 1525 1526 1527 1527 1528 1529 1529 1530 1530 1531 1531 1531
1513 1511 1490 1485 1489 1497 1498 1511 1537 1551 1555 1547 1532 1534 1520 1504 1501 1502 1503 1506 1508 1510 1511 1512 1514 1515 1517 1518 1520 1521 1522 1523 1524 1525 1526 1526 1527 1528 1528 1529 1529 1530 1530 1530
1510 1508 1486 1482 1481 1486 1498 1507 1510 1531 1539 1547 1540 1527 1514 1503 1503 1502 1504 1506 1507 1509 1510 1512 1513 1514 1515 1517 1518 1519 1521 1522 1523 1524 1525 1525 1526 1526 1527 1528 1528 1529 1529 1529
1496 1505 1492 1483 1480 1483 1488 1497 1515 1530 1547 1552 1542 1534 1528 1512 1508 1505 1505 1506 1507 1508 1510 1511 1512 1513 1514 1515 1516 1518 1520 1520 1522 1523 1523 1524 1524 1525 1525 1526 1526 1527 1527 1528
1490 1504 1500 1492 1493 1495 1494 1501 1512 1527 1532 1548 1551 1539 1508 1506 1504 1504 1504 1505 1506 1507 1509 1510 1511 1512 1513 1515 1515 1517 1518 1519 1520 1521 1522 1522 1523 1523 1523 1523 1524 1524 1525 1526
1488 1503 1511 1500 1487 1483 1488 1496 1509 1525 1532 1535 1542 1535 1500 1500 1500 1501 1503 1504 1506 1507 1508 1510 1511 1512 1513 1514 1514 1515 1516 1517 1518 1519 1520 1521 1521 1521 1521 1521 1522 1523 1523 1523
1488 1504 1520 1515 1506 1493 1492 1492 1499 1510 1523 1533 1539 1529 1500 1499 1501 1502 1503 1504 1505 1507 1509 1510 1511 1512 1513 1513 1514 1515 1515 1516 1516 1517 1518 1519 1519 1519 1519 1519 1520 1520 1520 1521
1482 1501 1513 1521 1514 1501 1498 1493 1495 1507 1523 1527 1523 1517 1506 1503 1502 1502 1503 1504 1505 1507 1508 1509 1511 1512 1512 1513 1513 1514 1514 1515 1516 1517 1517 1517 1517 1517 1517 1517 1518 1518 1518 1518
1484 1500 1498 1498 1493 1492 1493 1492 1492 1498 1505 1513 1511 1509 1504 1500 1500 1501 1502 1503 1504 1506 1507 1508 1509 1510 1511 1512 1512 1512 1513 1514 1515 1515 1515 1515 1515 1515 1516 1515 1515 1516 1516 1516
1488 1497 1497 1499 1492 1491 1493 1490 1490 1492 1494 1499 1502 1505 1497 1498 1500 1501 1502 1503 1503 1505 1506 1508 1509 1509 1510 1510 1511 1511 1512 1513 1513 1513 1513 1514 1514 1514 1513 1513 1513 1513 1513 1514
1493 1498 1507 1510 1498 1496 1504 1494 1491 1492 1491 1495 1503 1501 1497 1498 1499 1499 1500 1501 1502 1504 1505 1507 1508 1508 1508 1509 1509 1510 1511 1511 1511 1511 1511 1511 1511 1511 1511 1511 1511 1511 1511 1511
1492 1500 1510 1513 1508 1517 1504 1486 1485 1489 1491 1490 1492 1494 1494 1495 1497 1498 1499 1499 1502 1503 1504 1506 1507 1507 1507 1508 1508 1509 1509 1510 1509 1509 1508 1508 1508 1508 1509 1508 1508 1508 1507 1507
1484 1496 1508 1517 1519 1512 1497 1488 1488 1493 1498 1493 1493 1494 1496 1497 1498 1500 1500 1500 1501 1502 1503 1504 1505 1506 1506 1506 1506 1507 1507 1507 1507 1506 1505 1505 1505 1505 1505 1506 1505 1505 1505 1505
1486 1491 1506 1514 1517 1519 1504 1489 1486 1490 1503 1495 1493 1495 1496 1497 1504 1504 1501 1501 1502 1502 1502 1503 1504 1504 1505 1504 1505 1505 1505 1505 1505 1505 1504 1503 1503 1503 1503 1503 1503 1503 1503 1503
1499 1502 1507 1512 1515 1509 1494 1488 1487 1504 1506 1496 1494 1494 1495 1496 1498 1499 1500 1500 1501 1501 1501 1502 1502 1502 1503 1503 1503 1503 1503 1503 1503 1503 1502 1502 1502 1501 1501 1501 1501 1501 1501 1501
1502 1507 1509 1513 1517 1513 1490 1488 1494 1497 1493 1494 1493 1494 1495 1495 1497 1498 1498 1498 1498 1499 1500 1500 1500 1501 1501 1501 1502 1502 1501 1501 1502 1502 1501 1500 1500 1499 1499 1499 1499 1500 1500 1500
1497 1498 1501 1503 1504 1493 1489 1489 1490 1490 1492 1493 1493 1493 1494 1495 1496 1497 1498 1498 1498 1499 1499 1499 1499 1499 1500 1500 1500 1500 1500 1500 1500 1499 1499 1498 1498 1498 1497 1497 1497 1497 1498 1498
1492 1490 1494 1496 1493 1490 1489 1489 1490 1490 1490 1491 1492 1492 1493 1493 1495 1496 1498 1498 1497 1497 1498 1498 1498 1498 1498 1498 1498 1498 1498 1498 1498 1497 1497 1497 1496 1496 1496 1496 1496 1496 1496 1496
1491 1490 1494 1495 1492 1491 1490 1489 1490 1490 1490 1490 1491 1491 1492 1493 1494 1495 1496 1496 1496 1496 1497 1497 1497 1497 1496 1497 1496 1496 1496 1496 1496 1495 1495 1494 1494 1494 1494 1494 1494 1494 1494 1494
1488 1490 1493 1494 1489 1490 1490 1490 1490 1490 1490 1490 1490 1491 1492 1492 1492 1493 1494 1494 1494 1495 1495 1495 1496 1495 1495 1495 1495 1495 1494 1494 1494 1493 1493 1492 1492 1492 1492 1492 1492 1492 1492 1492